TOURFACTS.DK  
Stats and Facts from Tour de France.

Tour de France 2019 starts in 348 days
  Riders   Stages   Teams   Summits   Yearly  


 
Search by year

After 2018 - Stage 14:
 15000 starters.
  5163 different riders.
  639 teams.
  2246 stages.
  456 restdays.
  441957.60 km.
  5678 abandonnees.


Top 3
GC
Christopher Froome86:20:55
Rigoberto Urán86:21:49
Romain Bardet86:23:15
Climb
Warren Barguil169 pt.
Primoz Roglic80 pt.
Thomas De Gendt64 pt.
Sprint
Michael Matthews359 pt.
André Greipel234 pt.
Edvald Boasson Hagen220 pt.
Youth
Simon Yates86:27:09
Louis Meintjes86:29:15
Emanuel Buchmann86:54:16
Facts from Tour de France 1990
  |   Stages.  |   Stage winners.  |   Days in yellow  |   Average speed.  |   Route.  |   Teams.  |   All riders.  |   Rookies.  |  

  |   Withdrawls.  |   GC.  |   Polka  |   Green  |   White  |   Summits. (In tour)  |   Miscellaneous.  |  

Stage 12 on July 12th. 1990
         Owning:    Claudio Chiappucci    
Pick a stage:  Pro 1 2 3 4 5 6 7 8 9 10 11 12 13 14 15 16 17 18 19 20 21
From: Fontaine    To: Villard-de-LansDist:33.50 km.
Cat: 3Côte de EnginsNEDErik Breukink
20 points
 
Cat: 2Côte 2000-Villard de LansFRAJean-Claude Colotti
10 points
 

Average speed for all riders in stage:  32,364 km./hr.
    Place:Name:Team:Time:Km/h:
NEDErik BreukinkNLDPDM-Concorde00:56:52  +  00:00:00=35,346 
ESPPedro DelgadoESPBanesto00:57:22  +  00:00:30=35,038 
ESPMiguel IndurainESPBanesto00:57:35  +  00:00:43=34,906 
4 FRAFrancis MoreauBELHistor-Sigma00:57:46  +  00:00:54=34,795 
5 USAGreg LeMondFRAZ-Peugeot00:57:48  +  00:00:56=34,775 
6 COLFabio Parra PintoESPKelme-Ibexpress00:57:50  +  00:00:58=34,755 
7 COLWilliam PalacioCOLRyalcao-Postobon00:57:51  +  00:00:59=34,745 
8 ITAClaudio ChiappucciITACarrera Jeans-Vagabond00:57:57  +  00:01:05=34,685 
9 BELJohan BruyneelBELLotto-Superclub00:58:09  +  00:01:17=34,566 
10 COLReynel MontoyaCOLRyalcao-Postobon00:58:09  +  00:01:17=34,566 
11 ESPRaúl AlcaláNLDPDM-Concorde00:58:14  +  00:01:22=34,516 
12 FRAThierry MarieFRACastorama-Raleigh00:58:18  +  00:01:26=34,477 
13 FRAPascal LanceNLDToshiba00:58:29  +  00:01:37=34,369 
14 FRAÉric BoyerFRAZ-Peugeot00:58:45  +  00:01:53=34,213 
15 NEDSteven RooksNLDPanasonic-Sportlife00:58:58  +  00:02:06=34,087 
16 IRLStephen RocheBELHistor-Sigma00:59:18  +  00:02:26=33,895 
17 ESPJuan MartinezESPBanesto00:59:19  +  00:02:27=33,886 
18 BELClaude CriquielionBELLotto-Superclub00:59:19  +  00:02:27=33,886 
19 FRALaurent BiondiBELHistor-Sigma00:59:22  +  00:02:30=33,857 
20 ITARoberto ContiITAAriostea00:59:26  +  00:02:34=33,819 
21 COLAlvaro MejiaCOLRyalcao-Postobon00:59:27  +  00:02:35=33,810 
22 SUIGianni BugnoITAChateau d'Ax00:59:34  +  00:02:42=33,744 
23 NEDFrans MaassenNLDBuckler00:59:38  +  00:02:46=33,706 
24 USAAndy HampstenUSA7-Eleven-Hoonved00:59:38  +  00:02:46=33,706 
25 AUSStephen HodgeESPO.N.C.E.00:59:40  +  00:02:48=33,687 
26 ESPPello RuizESPO.N.C.E.00:59:40  +  00:02:48=33,687 
27 FRAJerôme SimonFRAZ-Peugeot00:59:41  +  00:02:49=33,678 
28 FRAThierry ClaveyrolatFRAR.M.O.-Mavic-Liberia00:59:41  +  00:02:49=33,678 
29 FRALuc LeblancFRACastorama-Raleigh00:59:42  +  00:02:50=33,668 
30 FRAJean-Claude ColottiFRAR.M.O.-Mavic-Liberia00:59:47  +  00:02:55=33,621 
31 FRAJean-Claude LeclercqCHEHelvetia-La Suisse00:59:49  +  00:02:57=33,603 
32 COLGerardo MoncadaCOLRyalcao-Postobon01:00:00  +  00:03:08=33,500 
33 SUIHans-Rüdi MärkiCHEHelvetia-La Suisse01:00:01  +  00:03:09=33,491 
34 SCORobert MillarFRAZ-Peugeot01:00:03  +  00:03:11=33,472 
35 FRAChristophe LavainneFRACastorama-Raleigh01:00:10  +  00:03:18=33,407 
36 ESPEduardo ChozasESPO.N.C.E.01:00:13  +  00:03:21=33,379 
37 URSPiotr UgrumovITAAlfa Lum01:00:14  +  00:03:22=33,370 
38 FRAPhilippe LouviotNLDToshiba01:00:18  +  00:03:26=33,333 
39 NORAtle KvålsvollFRAZ-Peugeot01:00:19  +  00:03:27=33,324 
40 CANSteve BauerUSA7-Eleven-Hoonved01:00:20  +  00:03:28=33,315 
41 ESPAnselmo FuerteESPO.N.C.E.01:00:25  +  00:03:33=33,269 
42 URSIvan IvanovITAAlfa Lum01:00:29  +  00:03:37=33,232 
43 COLAbelardo RondonESPBanesto01:00:32  +  00:03:40=33,205 
44 COLOscar VargasCOLRyalcao-Postobon01:00:33  +  00:03:41=33,196 
45 NEDGerrit De VriesNLDBuckler01:00:33  +  00:03:41=33,196 
46 BELJohan MuseeuwBELLotto-Superclub01:00:38  +  00:03:46=33,150 
47 BELEric Van LanckerNLDPanasonic-Sportlife01:00:40  +  00:03:48=33,132 
48 NEDPatrick TolhoekNLDBuckler01:00:40  +  00:03:48=33,132 
49 FRARonan PensecFRAZ-Peugeot01:00:42  +  00:03:50=33,114 
50 BELJos HaexBELLotto-Superclub01:00:44  +  00:03:52=33,095 
51 COLNelson RodriguezESPKelme-Ibexpress01:00:45  +  00:03:53=33,086 
52 ITAGiancarlo PeriniITACarrera Jeans-Vagabond01:00:55  +  00:04:03=32,996 
53 BELMarc SergeantNLDPanasonic-Sportlife01:00:56  +  00:04:04=32,987 
54 FRADenis RouxNLDToshiba01:00:59  +  00:04:07=32,960 
55 COLWilliam PulidoCOLRyalcao-Postobon01:00:59  +  00:04:07=32,960 
56 SUIGuido WinterbergCHEHelvetia-La Suisse01:01:00  +  00:04:08=32,951 
57 COLJuan CastilloCOLRyalcao-Postobon01:01:02  +  00:04:10=32,933 
58 URSDimitri KonychevITAAlfa Lum01:01:05  +  00:04:13=32,906 
59 FRAPascal LinoFRAR.M.O.-Mavic-Liberia01:01:06  +  00:04:14=32,897 
60 ESPMelchor MauriESPO.N.C.E.01:01:07  +  00:04:15=32,888 
61 IRLSean KellyNLDPDM-Concorde01:01:11  +  00:04:19=32,852 
62 FRAFabrice PhilipotFRACastorama-Raleigh01:01:15  +  00:04:23=32,816 
63 BELPatrick RobeetCHEWeinmann-La Suisse-S.M.M. Uste..01:01:17  +  00:04:25=32,798 
64 DDRUwe RaabNLDPDM-Concorde01:01:22  +  00:04:30=32,754 
65 FRAPascal SimonFRACastorama-Raleigh01:01:24  +  00:04:32=32,736 
66 FRAGilles DelionCHEHelvetia-La Suisse01:01:25  +  00:04:33=32,727 
67 DDRMario KummerITAChateau d'Ax01:01:28  +  00:04:36=32,701 
68 SUIJörg MüllerNLDTVM01:01:29  +  00:04:37=32,692 
69 BELPaul HaghedoorenBELHistor-Sigma01:01:30  +  00:04:38=32,683 
70 ESPJesus RodriguezESPBanesto01:01:33  +  00:04:41=32,656 
71 NEDMaarten DucrotNLDTVM01:01:33  +  00:04:41=32,656 
72 NORDag Otto LauritzenUSA7-Eleven-Hoonved01:01:35  +  00:04:43=32,639 
73 ESPLuis LukinESPBanesto01:01:40  +  00:04:48=32,595 
74 NEDEdwig Van HooydonckNLDBuckler01:01:47  +  00:04:55=32,533 
75 FRALaurent PillonBELHistor-Sigma01:01:50  +  00:04:58=32,507 
76 FRADominique ArnaudESPBanesto01:01:50  +  00:04:58=32,507 
77 ITAFlavio GiupponiITACarrera Jeans-Vagabond01:01:51  +  00:04:59=32,498 
78 NEDGert JakobsNLDPDM-Concorde01:01:53  +  00:05:01=32,480 
79 BELRudy DhaenensNLDPDM-Concorde01:01:55  +  00:05:03=32,463 
80 ENGPhil AndersonNLDTVM01:01:55  +  00:05:03=32,463 
81 SUIThomas WegmüllerCHEWeinmann-La Suisse-S.M.M. Uste..01:01:55  +  00:05:03=32,463 
82 BELGuy NulensNLDPanasonic-Sportlife01:01:57  +  00:05:05=32,446 
83 DDRJan SchurITAChateau d'Ax01:02:00  +  00:05:08=32,419 
84 ITAAlessandro GiannelliITACarrera Jeans-Vagabond01:02:01  +  00:05:09=32,411 
85 DENTony RomingerITAChateau d'Ax01:02:03  +  00:05:11=32,393 
86 ITAValerio PivaITAAriostea01:02:04  +  00:05:12=32,385 
87 USARonald KiefelUSA7-Eleven-Hoonved01:02:07  +  00:05:15=32,358 
88 URSViatcheslav EkimovNLDPanasonic-Sportlife01:02:12  +  00:05:20=32,315 
89 DENBjarne RiisFRACastorama-Raleigh01:02:12  +  00:05:20=32,315 
90 SUIBeat BreuCHEWeinmann-La Suisse-S.M.M. Uste..01:02:14  +  00:05:22=32,298 
91 ESPJosé UreaFRASeur01:02:23  +  00:05:31=32,220 
92 BELWilfried PeetersBELHistor-Sigma01:02:30  +  00:05:38=32,160 
93 ITAGuiseppe CalcaterraITAChateau d'Ax01:02:31  +  00:05:39=32,151 
94 ITABruno CenghialtaITAAriostea01:02:31  +  00:05:39=32,151 
95 ESPMiguel Angel MartinezESPO.N.C.E.01:02:31  +  00:05:39=32,151 
96 FRABruno CornilletFRAZ-Peugeot01:02:38  +  00:05:46=32,092 
97 ITAMarcello SiboniITAAriostea01:02:39  +  00:05:47=32,083 
98 FRAJean-Claude BagotFRAR.M.O.-Mavic-Liberia01:02:40  +  00:05:48=32,074 
99 ITAAlberto ElliITAAriostea01:02:40  +  00:05:48=32,074 
100 DDROlaf LudwigNLDPanasonic-Sportlife01:02:41  +  00:05:49=32,066 
101 COLCarlos JaramilloCOLRyalcao-Postobon01:02:41  +  00:05:49=32,066 
102 USABob RollUSA7-Eleven-Hoonved01:02:45  +  00:05:53=32,032 
103 USAAndrew BishopUSA7-Eleven-Hoonved01:02:47  +  00:05:55=32,015 
104 PORJosé FerreiraFRASeur01:02:51  +  00:05:59=31,981 
105 SUIMauro GianettiCHEHelvetia-La Suisse01:02:53  +  00:06:01=31,964 
106 NEDAdri Van Der PoelCHEWeinmann-La Suisse-S.M.M. Uste..01:02:55  +  00:06:03=31,947 
107 NEDToine PoelsNLDBuckler01:03:00  +  00:06:08=31,905 
108 BELCarlo BomansCHEWeinmann-La Suisse-S.M.M. Uste..01:03:02  +  00:06:10=31,888 
109 BELMichel DerniesCHEWeinmann-La Suisse-S.M.M. Uste..01:03:02  +  00:06:10=31,888 
110 ITAAlberto VolpiITAChateau d'Ax01:03:02  +  00:06:10=31,888 
111 BELPatrick VerschuerenBELLotto-Superclub01:03:02  +  00:06:10=31,888 
112 SUINiki RüttimannCHEHelvetia-La Suisse01:03:03  +  00:06:11=31,879 
113 SUIKurt SteinmannCHEWeinmann-La Suisse-S.M.M. Uste..01:03:03  +  00:06:11=31,879 
114 BELPeter RoesBELLotto-Superclub01:03:09  +  00:06:17=31,829 
115 FRACharly MottetFRAR.M.O.-Mavic-Liberia01:03:09  +  00:06:17=31,829 
116 NEDJelle NijdamNLDBuckler01:03:09  +  00:06:17=31,829 
117 BELWillem Van EyndeBELLotto-Superclub01:03:10  +  00:06:18=31,821 
118 FRAThierry LaurentFRAR.M.O.-Mavic-Liberia01:03:13  +  00:06:21=31,795 
119 DENJohnny WeltzESPO.N.C.E.01:03:14  +  00:06:22=31,787 
120 DENBrian HolmBELHistor-Sigma01:03:20  +  00:06:28=31,737 
121 BELMichel VermoteFRAR.M.O.-Mavic-Liberia01:03:22  +  00:06:30=31,720 
122 ITADavide CassaniITAAriostea01:03:23  +  00:06:31=31,712 
123 FRARoland Le ClercNLDToshiba01:03:23  +  00:06:31=31,712 
124 DENSøren LilholtBELHistor-Sigma01:03:23  +  00:06:31=31,712 
125 NEDGerrit SolleveldNLDBuckler01:03:24  +  00:06:32=31,703 
126 BELHendrik RedantBELLotto-Superclub01:03:30  +  00:06:38=31,654 
127 COLNéstor MoraESPKelme-Ibexpress01:03:30  +  00:06:38=31,654 
128 FRAGilbert Duclos-LassalleFRAZ-Peugeot01:03:32  +  00:06:40=31,637 
129 FRAVincent BarteauFRACastorama-Raleigh01:03:33  +  00:06:41=31,629 
130 ESPMarino MonjeESPBanesto01:03:35  +  00:06:43=31,612 
131 ESPVicente RidauraFRASeur01:03:44  +  00:06:52=31,538 
132 GERAndreas KappesNLDToshiba01:03:45  +  00:06:53=31,529 
133 NEDHenri MandersCHEHelvetia-La Suisse01:03:48  +  00:06:56=31,505 
134 SUIPascal RichardCHEHelvetia-La Suisse01:03:50  +  00:06:58=31,488 
135 ITARodolfo MassiITAAriostea01:03:54  +  00:07:02=31,455 
136 NEDJean-Paul van PoppelNLDPanasonic-Sportlife01:03:56  +  00:07:04=31,439 
137 ESPHerminio ZabalaESPO.N.C.E.01:04:01  +  00:07:09=31,398 
138 ENGSean YatesUSA7-Eleven-Hoonved01:04:03  +  00:07:11=31,382 
139 ITARoberto GusmeroliITAChateau d'Ax01:04:06  +  00:07:14=31,357 
140 ITAGuido BontempiITACarrera Jeans-Vagabond01:04:08  +  00:07:16=31,341 
141 BELPeter De ClercqBELLotto-Superclub01:04:09  +  00:07:17=31,333 
142 FRAFrançois LemarchandFRAZ-Peugeot01:04:13  +  00:07:21=31,300 
143 SUIErich MächlerITACarrera Jeans-Vagabond01:04:16  +  00:07:24=31,276 
144 ESPPablo MorenoFRASeur01:04:18  +  00:07:26=31,260 
145 COLPablo HernandezCOLRyalcao-Postobon01:04:21  +  00:07:29=31,235 
146 PORAcacio da SilvaITACarrera Jeans-Vagabond01:04:22  +  00:07:30=31,227 
147 ITAMassimo GhirottoITACarrera Jeans-Vagabond01:04:24  +  00:07:32=31,211 
148 BELJan GoessensCHEWeinmann-La Suisse-S.M.M. Uste..01:04:25  +  00:07:33=31,203 
149 NEDMartin SchalkersNLDTVM01:04:41  +  00:07:49=31,074 
150 FRAFrédéric BrunFRAR.M.O.-Mavic-Liberia01:04:41  +  00:07:49=31,074 
151 ESPAntonio DiasESPKelme-Ibexpress01:04:42  +  00:07:50=31,066 
152 ITAAdriano BaffiITAAriostea01:04:55  +  00:08:03=30,963 
153 USADavis PhinneyUSA7-Eleven-Hoonved01:04:59  +  00:08:07=30,931 
154 SUIOthmar HäfligerCHEHelvetia-La Suisse01:05:03  +  00:08:11=30,899 
155 ITAGiovanni FidanzaITAChateau d'Ax01:05:10  +  00:08:18=30,844 
156 ITAMauro-Antonio SantaromitaITAChateau d'Ax01:05:17  +  00:08:25=30,789 
157 ESPAntonio EspejoESPKelme-Ibexpress01:05:33  +  00:08:41=30,664 
158 ITAGiuseppe SaronniESPKelme-Ibexpress01:05:38  +  00:08:46=30,625 
159 DDRUwe AmplerNLDPDM-Concorde01:05:39  +  00:08:47=30,617 
160 URSDjamolidine AbduzhaparovITAAlfa Lum01:05:44  +  00:08:52=30,578 
161 URSVasily ZhdanovITAAlfa Lum01:05:50  +  00:08:58=30,532 
162 URSAlexandre TrubineITAAlfa Lum01:05:57  +  00:09:05=30,478 
163 USANorman AlvisUSA7-Eleven-Hoonved01:06:26  +  00:09:34=30,256 
164 ENGMaximilian SciandriITACarrera Jeans-Vagabond01:06:30  +  00:09:38=30,226 
165 NEDJan SiemonsNLDTVM01:06:50  +  00:09:58=30,075 
166 NEDJos Van AertNLDPDM-Concorde01:07:09  +  00:10:17=29,933 
167 ESPJesús RosadoESPKelme-Ibexpress01:07:11  +  00:10:19=29,918 
168 URSAsiat SaitovITAAlfa Lum01:07:24  +  00:10:32=29,822 
169 URSNikolai GolovatenkoITAAlfa Lum01:07:34  +  00:10:42=29,748 
170 FRAChristian ChaubetNLDToshiba01:07:42  +  00:10:50=29,690 

Withdrawls: 1
 
Rider
Team
Reason
147  FRAFrancis MoreauBELHistor-SigmaExceeded time limit

Todays birthdays.

1877  Antoine Perrichon
1878  Auguste Berthault
1911  Théo Herckenrath
1924  Carlo Lafranchi
1931  Armand Di Caro
1937  Jean-Claude Lebaube
1951  Giovanni Battaglin
1961  Pascal Jules
1962  Jean-Claude Leclercq
1976  Janek Tombak
1978  Francisco Pérez
1983  Dries Devenyns




Visits: